Facebook Twitter

Wetterstation Glücksburg-Meierwik

Messwerte
  Temperatur Wetter Niederschlag Luftdruck Wind
Mi, 16:20 Uhr 6° - - 1010 hPa 34 km/h W
Mi, 16:00 Uhr 6° - - 1010.6 hPa 32 km/h W

Böen 61 km/h
Mi, 15:20 Uhr 6° - - 1010 hPa 40 km/h NW
Mi, 15:00 Uhr 7° - - 1009.8 hPa 36 km/h NW

Böen 54 km/h
Mi, 14:20 Uhr 6° - - 1009 hPa 37 km/h NW
Mi, 14:00 Uhr 7° - - 1009.2 hPa 40 km/h NW

Böen 61 km/h
Mi, 13:20 Uhr 7° - - 1008 hPa 47 km/h W
Mi, 13:00 Uhr 7° - - 1008.3 hPa 40 km/h W

Böen 61 km/h
Mi, 12:20 Uhr 6° - - 1007 hPa 39 km/h NW

Böen 58 km/h
Mi, 12:00 Uhr 6° - - 1007.6 hPa 47 km/h W

Böen 61 km/h
Mi, 11:20 Uhr 6° - - 1007 hPa 40 km/h W
Mi, 11:00 Uhr 6° - - 1007 hPa 43 km/h W

Böen 50 km/h
Mi, 10:20 Uhr 6° - - 1006 hPa 35 km/h W
Mi, 10:00 Uhr 5° - - 1006.3 hPa 29 km/h W

Böen 61 km/h
Mi, 09:20 Uhr 5° - - 1006 hPa 32 km/h W
Mi, 09:00 Uhr 4° - - 1005.9 hPa 43 km/h W

Böen 58 km/h
Mi, 08:20 Uhr 4° - - 1005 hPa 26 km/h W
Mi, 08:00 Uhr 4° - - 1005.2 hPa 29 km/h NW

Böen 61 km/h
Mi, 07:20 Uhr 4° - - 1004 hPa 29 km/h W
Mi, 07:00 Uhr 5° - 8 mm 1004.4 hPa 29 km/h W

Böen 65 km/h

Alle Zeitangaben MEZ